Location: *
(33.8649°S, 62.1526°E)
Time: 03:43:42
(UTC+00:00)

SEDSat Delta rocket - Pass Details

Date: 17 January 2021
Orbit: 533 x 1000 km, 31.4° (Epoch: 27 February)

Event Time Altitude Azimuth Distance (km) Brightness Sun altitude
Rises 16:18:44 0° 296° (WNW) 2,789 6.8 -14.0°
Reaches altitude 10° 16:20:58 10° 302° (WNW) 1,944 5.9 -14.4°
Maximum altitude 16:25:18 47° 15° (NNE) 866 3.4 -15.1°
Enters shadow 16:28:14 22° 79° (E) 1,503 4.5 -15.5°
